This is the latest recevied weather packets stored in our database for station/object SP3VSS-13. If no packets are shown the sender has not sent any weather packets the latest 10 day(s).
| Time | Temp. | Humidity | Pressure | Rain* | Wind** | Luminosity | Snow |
|---|---|---|---|---|---|---|---|
| 1777132884 | 15.56° C | 44% | 997.2 hPa | - | - | 30 W/m² | - |
| 1777131983 | 15.56° C | 43% | 997.3 hPa | - | - | 32 W/m² | - |
| 1777131082 | 15.56° C | 43% | 997.4 hPa | - | - | 33 W/m² | - |
| 1777130180 | 15.56° C | 41% | 997.4 hPa | - | - | 34 W/m² | - |
| 1777129280 | 15.56° C | 41% | 997.5 hPa | - | - | 35 W/m² | - |
| 1777128379 | 15.56° C | 43% | 997.5 hPa | - | - | 36 W/m² | - |
| 1777127478 | 15.56° C | 43% | 998.2 hPa | - | - | 38 W/m² | - |
| 1777126576 | 15.56° C | 42% | 997.8 hPa | - | - | 39 W/m² | - |
| 1777125676 | 15.56° C | 42% | 997.8 hPa | - | - | 41 W/m² | - |
| 1777124775 | 15.56° C | 43% | 998 hPa | - | - | 43 W/m² | - |
| 1777123874 | 15° C | 45% | 998.1 hPa | - | - | 45 W/m² | - |
| 1777122973 | 15° C | 43% | 998.1 hPa | - | - | 46 W/m² | - |
| 1777122072 | 15° C | 47% | 998.4 hPa | - | - | 49 W/m² | - |
| 1777121171 | 15° C | 45% | 998.3 hPa | - | - | 50 W/m² | - |
| 1777120270 | 15° C | 47% | 998.5 hPa | - | - | 53 W/m² | - |
| 1777119369 | 14.44° C | 49% | 998.7 hPa | - | - | 60 W/m² | - |
| 1777118467 | 13.89° C | 50% | 998.8 hPa | - | - | 599 W/m² | - |
| 1777117566 | 13.89° C | 51% | 998.9 hPa | - | - | 625 W/m² | - |
| 1777116666 | 13.89° C | 51% | 999.1 hPa | - | - | 567 W/m² | - |
| 1777115765 | 13.89° C | 54% | 999.2 hPa | - | - | 642 W/m² | - |
| 1777114864 | 13.89° C | 54% | 999.2 hPa | - | - | 610 W/m² | - |
| 1777113963 | 13.33° C | 56% | 999.2 hPa | - | - | 684 W/m² | - |
| 1777113062 | 12.78° C | 56% | 999.3 hPa | - | - | 659 W/m² | - |
| 1777112161 | 12.22° C | 56% | 999.4 hPa | - | - | 637 W/m² | - |
| 1777111260 | 12.78° C | 58% | 999.4 hPa | - | - | 616 W/m² | - |
* Rain since midnight (hover to see other rain measurements)
** Current wind speed in m/s (hover to see current wind gust speed)